Audacia — ZCIM3 — position and weather

sailwx.info

Track history (hours):
 
Tides and Currents Weather Stations Pressure Air Temp Water Temp Dewpoint Dewpoint Depression Visibility Wind Speed Wind Dir Waves Ship Positions

Audacia

Last reported at 2014-Aug-04 15:23 UTC. Time now 2014-Aug-23 01:34 UTC.
Position N 37°55' E 023°01'.
Warning: this ship's position is 18 days out of date.

; draft 3.2 m.

Type: Pleasure craft. MMSI: 319825000.

Date/timePositionNaut miles runAvg speedWind from/ knotsBaromVisibWave heightAir tempDewpointWater temp
2014-Aug-04 15:23N 37°55' E 023°01'910.2
2014-Aug-04 14:33N 37°52' E 023°11'1212.2
2014-Aug-04 13:34N 37°49' E 023°26'7 7.0
2014-Aug-04 12:33N 37°45' E 023°34'0 0.0
2014-Aug-04 11:31N 37°45' E 023°34'5 5.7
2014-Aug-04 10:33N 37°51' E 023°34'7 7.1
2014-Aug-04 09:31N 37°56' E 023°41'0 0.0
2014-Aug-04 08:31N 37°56' E 023°41'0 0.0
2014-Aug-04 07:31N 37°56' E 023°41'0 0.0
2014-Aug-04 06:31N 37°56' E 023°41'0 0.0
2014-Aug-04 05:28N 37°56' E 023°41'0 0.0
2014-Aug-04 04:25N 37°56' E 023°41'0 0.0
2014-Aug-04 03:31N 37°56' E 023°41'0 0.0
2014-Aug-04 02:31N 37°56' E 023°41'0 0.0
2014-Aug-04 01:31N 37°56' E 023°41'0 0.0
2014-Aug-04 00:28N 37°56' E 023°41'0 0.0
2014-Aug-03 23:31N 37°56' E 023°41'0 0.0
2014-Aug-03 22:31N 37°56' E 023°41'0 0.0
2014-Aug-03 21:31N 37°56' E 023°41'0 0.0
2014-Aug-03 20:31N 37°56' E 023°41'0 0.0
2014-Aug-03 19:31N 37°56' E 023°41'0 0.0
2014-Aug-03 18:31N 37°56' E 023°41'0 0.0
2014-Aug-03 17:31N 37°56' E 023°41'0 0.0
2014-Aug-03 11:31N 37°56' E 023°41'0 0.0
2014-Aug-03 10:31N 37°56' E 023°41'0 0.0
2014-Aug-03 09:31N 37°56' E 023°41'0 0.0
2014-Aug-03 08:34N 37°56' E 023°41'0 0.0
2014-Aug-03 07:33N 37°56' E 023°41'0 0.0
2014-Aug-03 06:33N 37°56' E 023°41'0 0.0
2014-Aug-03 05:33N 37°56' E 023°41'0 0.0
2014-Aug-03 04:33N 37°56' E 023°41'0 0.0
2014-Aug-03 03:33N 37°56' E 023°41'0 0.0
2014-Aug-03 02:33N 37°56' E 023°41'0 0.0
2014-Aug-03 01:33N 37°56' E 023°41'0 0.0
2014-Aug-03 00:33N 37°56' E 023°41'0 0.0
2014-Aug-02 23:33N 37°56' E 023°41'0 0.0
2014-Aug-02 22:33N 37°56' E 023°41'0 0.0
2014-Aug-02 21:33N 37°56' E 023°41'0 0.0
2014-Aug-02 20:33N 37°56' E 023°41'0 0.0
2014-Aug-02 19:33N 37°56' E 023°41'0 0.0
2014-Aug-02 18:30N 37°56' E 023°41'0 0.0
2014-Aug-02 17:33N 37°56' E 023°41'0 0.0
2014-Aug-02 16:33N 37°56' E 023°41'0 0.0
2014-Aug-02 15:33N 37°56' E 023°41'6 5.5
2014-Aug-02 14:33N 37°50' E 023°40'4011.8
2014-Aug-02 11:09N 37°30' E 024°23'2112.9
2014-Aug-02 09:33N 37°21' E 024°46'1313.2
2014-Aug-02 08:33N 37°20' E 025°03'1212.5
2014-Aug-02 07:33N 37°22' E 025°18'2 2.4
2014-Aug-02 06:32N 37°25' E 025°19'0 0.0
2014-Aug-02 05:32N 37°25' E 025°19'0 0.0
2014-Aug-02 04:32N 37°25' E 025°19'0 0.0
2014-Aug-02 03:32N 37°25' E 025°19'0 0.0
2014-Aug-02 02:17N 37°25' E 025°19'0 0.1
2014-Aug-02 01:31N 37°25' E 025°19'0 0.0
2014-Aug-02 00:31N 37°25' E 025°19'0 0.0
2014-Aug-01 23:31N 37°25' E 025°19'0 0.0
2014-Aug-01 22:31N 37°25' E 025°19'0 0.0
2014-Aug-01 21:31N 37°25' E 025°19'0 0.0
2014-Aug-01 20:31N 37°25' E 025°19'0 0.0
2014-Aug-01 19:28N 37°25' E 025°19'0 0.0
2014-Aug-01 18:31N 37°25' E 025°19'0 0.0
2014-Aug-01 17:31N 37°25' E 025°19'0 0.0
2014-Aug-01 16:31N 37°25' E 025°19'0 0.0
2014-Aug-01 15:31N 37°25' E 025°19'0 0.0
2014-Aug-01 14:31N 37°25' E 025°19'0 0.0
2014-Aug-01 13:31N 37°25' E 025°19'0 0.1
2014-Aug-01 12:29N 37°25' E 025°19'0 0.0
2014-Aug-01 11:32N 37°25' E 025°19'0 0.0
2014-Aug-01 10:32N 37°25' E 025°19'0 0.0
2014-Aug-01 09:32N 37°25' E 025°19'0 0.0
2014-Aug-01 08:29N 37°25' E 025°19'0 0.0
2014-Aug-01 07:32N 37°25' E 025°19'2 2.3
2014-Aug-01 06:33N 37°27' E 025°19'0 0.4
2014-Aug-01 05:31N 37°27' E 025°20'0 0.0
2014-Aug-01 04:31N 37°27' E 025°20'0 0.0
2014-Aug-01 03:31N 37°27' E 025°20'0 0.0
2014-Aug-01 02:31N 37°27' E 025°20'0 0.0
2014-Aug-01 01:31N 37°27' E 025°20'0 0.0
2014-Aug-01 00:31N 37°27' E 025°20'0 0.0
2014-Jul-31 23:31N 37°27' E 025°20'0 0.0
2014-Jul-31 22:22N 37°27' E 025°20'0 0.0
2014-Jul-31 21:16N 37°27' E 025°20'0 0.0
2014-Jul-31 20:28N 37°27' E 025°20'0 0.0
2014-Jul-31 19:28N 37°27' E 025°20'0 0.0
2014-Jul-31 18:22N 37°27' E 025°20'0 0.0
2014-Jul-31 17:28N 37°27' E 025°20'0 0.0
2014-Jul-31 16:31N 37°27' E 025°20'0 0.0
2014-Jul-31 15:31N 37°27' E 025°20'0 0.0
2014-Jul-31 14:31N 37°27' E 025°20'1 1.2
2014-Jul-31 13:31N 37°27' E 025°18'3 3.2
2014-Jul-31 12:32N 37°24' E 025°20'0 0.0
2014-Jul-31 11:32N 37°24' E 025°20'0 0.0
2014-Jul-31 10:29N 37°24' E 025°20'0 0.0
2014-Jul-31 09:32N 37°24' E 025°20'0 0.0
2014-Jul-31 08:29N 37°24' E 025°20'0 0.0
2014-Jul-31 07:29N 37°24' E 025°20'0 0.0
2014-Jul-31 06:32N 37°24' E 025°20'0 0.0
2014-Jul-31 05:32N 37°24' E 025°20'0 0.0
2014-Jul-31 04:29N 37°24' E 025°20'0 0.0
2014-Jul-31 03:32N 37°24' E 025°20'3 3.0
2014-Jul-31 02:34N 37°21' E 025°21'1110.9
2014-Jul-31 01:34N 37°11' E 025°21'1212.1
2014-Jul-31 00:34N 36°59' E 025°18'1312.8
2014-Jul-30 23:33N 36°47' E 025°12'1212.3
2014-Jul-30 22:34N 36°36' E 025°19'1312.7
2014-Jul-30 21:34N 36°27' E 025°30'6 5.5
2014-Jul-30 20:28N 36°21' E 025°29'0 0.0
2014-Jul-30 19:31N 36°21' E 025°29'0 0.0
2014-Jul-30 18:31N 36°21' E 025°29'0 0.0
2014-Jul-30 17:31N 36°21' E 025°29'0 0.0
2014-Jul-30 16:28N 36°21' E 025°29'0 0.0
2014-Jul-30 15:31N 36°21' E 025°29'0 0.0
2014-Jul-30 14:28N 36°21' E 025°29'0 0.0
2014-Jul-30 13:31N 36°21' E 025°29'4 0.9
2014-Jul-30 09:33N 36°20' E 025°24'5 0.3
2014-Jul-29 16:27N 36°25' E 025°26'3 3.8
2014-Jul-29 15:33N 36°28' E 025°26'0 0.1
2014-Jul-29 14:30N 36°28' E 025°26'0 0.0
2014-Jul-29 13:30N 36°28' E 025°26'0 0.0
2014-Jul-29 12:30N 36°28' E 025°26'0 0.0
2014-Jul-29 11:30N 36°28' E 025°26'3 2.9
2014-Jul-29 10:33N 36°26' E 025°23'3 0.7
2014-Jul-29 06:33N 36°24' E 025°25'5 4.4
2014-Jul-29 05:29N 36°20' E 025°29'1510.4
2014-Jul-29 04:05N 36°27' E 025°44'712.4
2014-Jul-29 03:33N 36°27' E 025°53'1312.8
2014-Jul-29 02:33N 36°28' E 026°09'12 9.6
2014-Jul-29 01:21N 36°32' E 026°22'  
Track history (hours):
 
Tides and Currents Weather Stations Pressure Air Temp Water Temp Dewpoint Dewpoint Depression Visibility Wind Speed Wind Dir Waves Ship Positions

Audacia

Last reported at 2014-Aug-04 15:23 UTC. Time now 2014-Aug-23 01:34 UTC.
Position N 37°55' E 023°01'.
Warning: this ship's position is 18 days out of date.

; draft 3.2 m.

Type: Pleasure craft. MMSI: 319825000.

Date/timePositionNaut miles runAvg speedWind from/ knotsBaromVisibWave heightAir tempDewpointWater temp
2014-Aug-04 15:23N 37°55' E 023°01'910.2
2014-Aug-04 14:33N 37°52' E 023°11'1212.2
2014-Aug-04 13:34N 37°49' E 023°26'7 7.0
2014-Aug-04 12:33N 37°45' E 023°34'0 0.0
2014-Aug-04 11:31N 37°45' E 023°34'5 5.7
2014-Aug-04 10:33N 37°51' E 023°34'7 7.1
2014-Aug-04 09:31N 37°56' E 023°41'0 0.0
2014-Aug-04 08:31N 37°56' E 023°41'0 0.0
2014-Aug-04 07:31N 37°56' E 023°41'0 0.0
2014-Aug-04 06:31N 37°56' E 023°41'0 0.0
2014-Aug-04 05:28N 37°56' E 023°41'0 0.0
2014-Aug-04 04:25N 37°56' E 023°41'0 0.0
2014-Aug-04 03:31N 37°56' E 023°41'0 0.0
2014-Aug-04 02:31N 37°56' E 023°41'0 0.0
2014-Aug-04 01:31N 37°56' E 023°41'0 0.0
2014-Aug-04 00:28N 37°56' E 023°41'0 0.0
2014-Aug-03 23:31N 37°56' E 023°41'0 0.0
2014-Aug-03 22:31N 37°56' E 023°41'0 0.0
2014-Aug-03 21:31N 37°56' E 023°41'0 0.0
2014-Aug-03 20:31N 37°56' E 023°41'0 0.0
2014-Aug-03 19:31N 37°56' E 023°41'0 0.0
2014-Aug-03 18:31N 37°56' E 023°41'0 0.0
2014-Aug-03 17:31N 37°56' E 023°41'0 0.0
2014-Aug-03 11:31N 37°56' E 023°41'0 0.0
2014-Aug-03 10:31N 37°56' E 023°41'0 0.0
2014-Aug-03 09:31N 37°56' E 023°41'0 0.0
2014-Aug-03 08:34N 37°56' E 023°41'0 0.0
2014-Aug-03 07:33N 37°56' E 023°41'0 0.0
2014-Aug-03 06:33N 37°56' E 023°41'0 0.0
2014-Aug-03 05:33N 37°56' E 023°41'0 0.0
2014-Aug-03 04:33N 37°56' E 023°41'0 0.0
2014-Aug-03 03:33N 37°56' E 023°41'0 0.0
2014-Aug-03 02:33N 37°56' E 023°41'0 0.0
2014-Aug-03 01:33N 37°56' E 023°41'0 0.0
2014-Aug-03 00:33N 37°56' E 023°41'0 0.0
2014-Aug-02 23:33N 37°56' E 023°41'0 0.0
2014-Aug-02 22:33N 37°56' E 023°41'0 0.0
2014-Aug-02 21:33N 37°56' E 023°41'0 0.0
2014-Aug-02 20:33N 37°56' E 023°41'0 0.0
2014-Aug-02 19:33N 37°56' E 023°41'0 0.0
2014-Aug-02 18:30N 37°56' E 023°41'0 0.0
2014-Aug-02 17:33N 37°56' E 023°41'0 0.0
2014-Aug-02 16:33N 37°56' E 023°41'0 0.0
2014-Aug-02 15:33N 37°56' E 023°41'6 5.5
2014-Aug-02 14:33N 37°50' E 023°40'4011.8
2014-Aug-02 11:09N 37°30' E 024°23'2112.9
2014-Aug-02 09:33N 37°21' E 024°46'1313.2
2014-Aug-02 08:33N 37°20' E 025°03'1212.5
2014-Aug-02 07:33N 37°22' E 025°18'2 2.4
2014-Aug-02 06:32N 37°25' E 025°19'0 0.0
2014-Aug-02 05:32N 37°25' E 025°19'0 0.0
2014-Aug-02 04:32N 37°25' E 025°19'0 0.0
2014-Aug-02 03:32N 37°25' E 025°19'0 0.0
2014-Aug-02 02:17N 37°25' E 025°19'0 0.1
2014-Aug-02 01:31N 37°25' E 025°19'0 0.0
2014-Aug-02 00:31N 37°25' E 025°19'0 0.0
2014-Aug-01 23:31N 37°25' E 025°19'0 0.0
2014-Aug-01 22:31N 37°25' E 025°19'0 0.0
2014-Aug-01 21:31N 37°25' E 025°19'0 0.0
2014-Aug-01 20:31N 37°25' E 025°19'0 0.0
2014-Aug-01 19:28N 37°25' E 025°19'0 0.0
2014-Aug-01 18:31N 37°25' E 025°19'0 0.0
2014-Aug-01 17:31N 37°25' E 025°19'0 0.0
2014-Aug-01 16:31N 37°25' E 025°19'0 0.0
2014-Aug-01 15:31N 37°25' E 025°19'0 0.0
2014-Aug-01 14:31N 37°25' E 025°19'0 0.0
2014-Aug-01 13:31N 37°25' E 025°19'0 0.1
2014-Aug-01 12:29N 37°25' E 025°19'0 0.0
2014-Aug-01 11:32N 37°25' E 025°19'0 0.0
2014-Aug-01 10:32N 37°25' E 025°19'0 0.0
2014-Aug-01 09:32N 37°25' E 025°19'0 0.0
2014-Aug-01 08:29N 37°25' E 025°19'0 0.0
2014-Aug-01 07:32N 37°25' E 025°19'2 2.3
2014-Aug-01 06:33N 37°27' E 025°19'0 0.4
2014-Aug-01 05:31N 37°27' E 025°20'0 0.0
2014-Aug-01 04:31N 37°27' E 025°20'0 0.0
2014-Aug-01 03:31N 37°27' E 025°20'0 0.0
2014-Aug-01 02:31N 37°27' E 025°20'0 0.0
2014-Aug-01 01:31N 37°27' E 025°20'0 0.0
2014-Aug-01 00:31N 37°27' E 025°20'0 0.0
2014-Jul-31 23:31N 37°27' E 025°20'0 0.0
2014-Jul-31 22:22N 37°27' E 025°20'0 0.0
2014-Jul-31 21:16N 37°27' E 025°20'0 0.0
2014-Jul-31 20:28N 37°27' E 025°20'0 0.0
2014-Jul-31 19:28N 37°27' E 025°20'0 0.0
2014-Jul-31 18:22N 37°27' E 025°20'0 0.0
2014-Jul-31 17:28N 37°27' E 025°20'0 0.0
2014-Jul-31 16:31N 37°27' E 025°20'0 0.0
2014-Jul-31 15:31N 37°27' E 025°20'0 0.0
2014-Jul-31 14:31N 37°27' E 025°20'1 1.2
2014-Jul-31 13:31N 37°27' E 025°18'3 3.2
2014-Jul-31 12:32N 37°24' E 025°20'0 0.0
2014-Jul-31 11:32N 37°24' E 025°20'0 0.0
2014-Jul-31 10:29N 37°24' E 025°20'0 0.0
2014-Jul-31 09:32N 37°24' E 025°20'0 0.0
2014-Jul-31 08:29N 37°24' E 025°20'0 0.0
2014-Jul-31 07:29N 37°24' E 025°20'0 0.0
2014-Jul-31 06:32N 37°24' E 025°20'0 0.0
2014-Jul-31 05:32N 37°24' E 025°20'0 0.0
2014-Jul-31 04:29N 37°24' E 025°20'0 0.0
2014-Jul-31 03:32N 37°24' E 025°20'3 3.0
2014-Jul-31 02:34N 37°21' E 025°21'1110.9
2014-Jul-31 01:34N 37°11' E 025°21'1212.1
2014-Jul-31 00:34N 36°59' E 025°18'1312.8
2014-Jul-30 23:33N 36°47' E 025°12'1212.3
2014-Jul-30 22:34N 36°36' E 025°19'1312.7
2014-Jul-30 21:34N 36°27' E 025°30'6 5.5
2014-Jul-30 20:28N 36°21' E 025°29'0 0.0
2014-Jul-30 19:31N 36°21' E 025°29'0 0.0
2014-Jul-30 18:31N 36°21' E 025°29'0 0.0
2014-Jul-30 17:31N 36°21' E 025°29'0 0.0
2014-Jul-30 16:28N 36°21' E 025°29'0 0.0
2014-Jul-30 15:31N 36°21' E 025°29'0 0.0
2014-Jul-30 14:28N 36°21' E 025°29'0 0.0
2014-Jul-30 13:31N 36°21' E 025°29'4 0.9
2014-Jul-30 09:33N 36°20' E 025°24'5 0.3
2014-Jul-29 16:27N 36°25' E 025°26'3 3.8
2014-Jul-29 15:33N 36°28' E 025°26'0 0.1
2014-Jul-29 14:30N 36°28' E 025°26'0 0.0
2014-Jul-29 13:30N 36°28' E 025°26'0 0.0
2014-Jul-29 12:30N 36°28' E 025°26'0 0.0
2014-Jul-29 11:30N 36°28' E 025°26'3 2.9
2014-Jul-29 10:33N 36°26' E 025°23'3 0.7
2014-Jul-29 06:33N 36°24' E 025°25'5 4.4
2014-Jul-29 05:29N 36°20' E 025°29'1510.4
2014-Jul-29 04:05N 36°27' E 025°44'712.4
2014-Jul-29 03:33N 36°27' E 025°53'1312.8
2014-Jul-29 02:33N 36°28' E 026°09'12 9.6
2014-Jul-29 01:21N 36°32' E 026°22'  

Dump ship's entire track history